When you browse on this site, cookies collect data to enhance your experience and personalize the content and advertising you see.
Visit our Privacy Policy to learn more. By continuing to use the site, you agree to this use of cookies and data.
  • en France
  • Liste des pays
  • À 7 jours
  • Température de l'eau
  • Carte satellitaire
  • Carte météo
  • Widgets météo
  • user-avatar
    Se connecter

    Météo par heure à Annaba

    Ce jour, 21 Mars, Jeudi

    Heure Température Précipitation Vent Pression Humidité
    00:00 +9°C° 4.1 mm 5 m/s 761 mmHg 96%
    01:00 +9°C° 4.1 mm 5 m/s 761 mmHg 96%
    02:00 +9°C° 4.5 mm 6 m/s 760 mmHg 95%
    03:00 +10°C° 4.5 mm 7 m/s 760 mmHg 95%
    04:00 +10°C° 4.5 mm 7 m/s 759 mmHg 94%
    05:00 +11°C° 0.1 mm 8 m/s 759 mmHg 92%
    06:00 +11°C° 0.1 mm 8 m/s 759 mmHg 90%
    07:00 +11°C° 0.1 mm 9 m/s 759 mmHg 88%
    08:00 +12°C° 0.1 mm 10 m/s 759 mmHg 87%
    09:00 +12°C° 0.1 mm 11 m/s 759 mmHg 87%
    10:00 +12°C° 0.1 mm 11 m/s 759 mmHg 86%
    11:00 +13°C° 0.1 mm 11 m/s 759 mmHg 85%
    12:00 +13°C° 0.1 mm 12 m/s 759 mmHg 84%
    13:00 +13°C° 0.1 mm 12 m/s 759 mmHg 82%
    14:00 +13°C° 1.4 mm 11 m/s 759 mmHg 85%
    15:00 +12°C° 1.4 mm 10 m/s 759 mmHg 89%
    16:00 +12°C° 1.4 mm 9 m/s 759 mmHg 92%
    17:00 +12°C° 3.4 mm 9 m/s 759 mmHg 92%
    18:00 +12°C° 3.4 mm 9 m/s 759 mmHg 93%
    19:00 +11°C° 3.4 mm 9 m/s 760 mmHg 94%
    20:00 +12°C° 1.8 mm 9 m/s 760 mmHg 94%
    21:00 +12°C° 1.8 mm 9 m/s 761 mmHg 93%
    22:00 +12°C° 1.8 mm 9 m/s 761 mmHg 93%
    23:00 +11°C° 0.5 mm 8 m/s 761 mmHg 93%

    Demain, 22 Mars, Vendredi

    Heure Température Précipitation Vent Pression Humidité
    00:00 +11°C° 0.5 mm 6 m/s 761 mmHg 94%
    01:00 +12°C° 0.5 mm 5 m/s 761 mmHg 94%
    02:00 +12°C° 0.3 mm 4 m/s 761 mmHg 94%
    03:00 +11°C° 0.3 mm 4 m/s 761 mmHg 94%
    04:00 +11°C° 0.3 mm 3 m/s 761 mmHg 94%
    05:00 +11°C° 0 mm 3 m/s 761 mmHg 94%
    06:00 +10°C° 0 mm 2 m/s 761 mmHg 94%
    07:00 +10°C° 0 mm 2 m/s 762 mmHg 94%
    08:00 +13°C° 0 mm 2 m/s 762 mmHg 88%
    09:00 +15°C° 0 mm 1 m/s 762 mmHg 82%
    10:00 +16°C° 0 mm 1 m/s 763 mmHg 76%
    11:00 +17°C° 0 mm 2 m/s 763 mmHg 72%
    12:00 +17°C° 0 mm 4 m/s 763 mmHg 69%
    13:00 +17°C° 0 mm 5 m/s 763 mmHg 66%
    14:00 +17°C° 0.1 mm 5 m/s 763 mmHg 67%
    15:00 +16°C° 0.1 mm 5 m/s 763 mmHg 69%
    16:00 +16°C° 0.1 mm 5 m/s 762 mmHg 71%
    17:00 +15°C° 0.1 mm 4 m/s 763 mmHg 76%
    18:00 +13°C° 0.1 mm 4 m/s 763 mmHg 82%
    19:00 +12°C° 0.1 mm 4 m/s 764 mmHg 88%
    20:00 +11°C° 0.1 mm 3 m/s 764 mmHg 89%
    21:00 +11°C° 0.1 mm 3 m/s 765 mmHg 90%
    22:00 +11°C° 0.1 mm 3 m/s 765 mmHg 92%
    23:00 +12°C° 0.1 mm 2 m/s 765 mmHg 92%

    Après-demain, 23 Mars, Samedi

    Heure Température Précipitation Vent Pression Humidité
    00:00 +12°C° 0.1 mm 2 m/s 765 mmHg 93%
    01:00 +11°C° 0.1 mm 1 m/s 765 mmHg 93%
    02:00 +11°C° 0.8 mm 1 m/s 765 mmHg 94%
    03:00 +10°C° 0.8 mm 2 m/s 765 mmHg 94%
    04:00 +12°C° 0.8 mm 2 m/s 765 mmHg 94%
    05:00 +10°C° 0.3 mm 2 m/s 765 mmHg 94%
    06:00 +11°C° 0.3 mm 1 m/s 765 mmHg 94%
    07:00 +11°C° 0.3 mm 1 m/s 765 mmHg 95%
    08:00 +13°C° 0 mm 1 m/s 765 mmHg 91%
    09:00 +14°C° 0 mm 1 m/s 765 mmHg 87%
    10:00 +15°C° 0 mm 1 m/s 766 mmHg 84%
    11:00 +15°C° 0.1 mm 1 m/s 766 mmHg 81%
    12:00 +16°C° 0.1 mm 1 m/s 766 mmHg 79%
    13:00 +16°C° 0.1 mm 2 m/s 765 mmHg 76%
    14:00 +16°C° 0.1 mm 2 m/s 765 mmHg 76%
    15:00 +17°C° 0.1 mm 3 m/s 765 mmHg 76%
    16:00 +17°C° 0.1 mm 3 m/s 765 mmHg 76%
    17:00 +15°C° 0 mm 2 m/s 765 mmHg 80%
    18:00 +14°C° 0 mm 2 m/s 765 mmHg 84%
    19:00 +13°C° 0 mm 1 m/s 765 mmHg 88%
    20:00 +12°C° 0 mm 1 m/s 766 mmHg 89%
    21:00 +12°C° 0 mm 1 m/s 766 mmHg 89%
    22:00 +12°C° 0 mm 1 m/s 766 mmHg 90%
    23:00 +12°C° 0 mm 1 m/s 766 mmHg 90%

    24 Mars, Dimanche

    Heure Température Précipitation Vent Pression Humidité
    00:00 +11°C° 0 mm 1 m/s 766 mmHg 91%
    01:00 +11°C° 0 mm 1 m/s 766 mmHg 91%
    02:00 +11°C° 0 mm 1 m/s 766 mmHg 91%
    03:00 +11°C° 0 mm 1 m/s 766 mmHg 90%
    04:00 +10°C° 0 mm 1 m/s 766 mmHg 90%
    05:00 +10°C° 0 mm 1 m/s 766 mmHg 88%
    06:00 +10°C° 0 mm 1 m/s 766 mmHg 87%
    07:00 +9°C° 0 mm 2 m/s 766 mmHg 86%
    08:00 +13°C° 0 mm 2 m/s 766 mmHg 78%
    09:00 +15°C° 0 mm 2 m/s 766 mmHg 70%
    10:00 +17°C° 0 mm 2 m/s 766 mmHg 62%
    11:00 +18°C° 0 mm 2 m/s 766 mmHg 58%
    12:00 +20°C° 0 mm 2 m/s 765 mmHg 55%
    13:00 +21°C° 0 mm 3 m/s 765 mmHg 51%
    14:00 +21°C° 0 mm 3 m/s 765 mmHg 53%
    15:00 +21°C° 0 mm 4 m/s 764 mmHg 56%
    16:00 +21°C° 0 mm 4 m/s 764 mmHg 58%
    17:00 +19°C° 0 mm 4 m/s 764 mmHg 66%
    18:00 +17°C° 0 mm 4 m/s 764 mmHg 73%
    19:00 +14°C° 0 mm 4 m/s 764 mmHg 81%
    20:00 +14°C° 0 mm 3 m/s 764 mmHg 82%
    21:00 +13°C° 0 mm 3 m/s 765 mmHg 83%
    22:00 +13°C° 0 mm 2 m/s 765 mmHg 84%
    23:00 +13°C° 0 mm 2 m/s 765 mmHg 83%

    25 Mars, Lundi

    Heure Température Précipitation Vent Pression Humidité
    00:00 +13°C° 0 mm 2 m/s 764 mmHg 81%
    01:00 +12°C° 0 mm 2 m/s 764 mmHg 80%
    02:00 +12°C° 0 mm 2 m/s 764 mmHg 79%
    03:00 +12°C° 0 mm 1 m/s 764 mmHg 78%
    04:00 +12°C° 0 mm 1 m/s 763 mmHg 77%
    05:00 +12°C° 0 mm 1 m/s 763 mmHg 77%
    06:00 +12°C° 0 mm 1 m/s 763 mmHg 77%
    07:00 +12°C° 0 mm 1 m/s 764 mmHg 77%
    08:00 +14°C° 0 mm 1 m/s 764 mmHg 71%
    09:00 +18°C° 0 mm 1 m/s 764 mmHg 65%
    10:00 +19°C° 0 mm 0 m/s 764 mmHg 59%
    11:00 +21°C° 0 mm 1 m/s 763 mmHg 56%
    12:00 +22°C° 0 mm 1 m/s 763 mmHg 54%
    13:00 +23°C° 0 mm 2 m/s 763 mmHg 51%
    14:00 +23°C° 0 mm 2 m/s 762 mmHg 54%
    15:00 +21°C° 0 mm 3 m/s 762 mmHg 57%
    16:00 +21°C° 0 mm 3 m/s 761 mmHg 60%
    17:00 +19°C° 0 mm 3 m/s 761 mmHg 66%
    18:00 +17°C° 0 mm 2 m/s 761 mmHg 72%
    19:00 +15°C° 0 mm 2 m/s 761 mmHg 79%
    20:00 +14°C° 0 mm 1 m/s 762 mmHg 80%
    21:00 +14°C° 0 mm 1 m/s 762 mmHg 81%
    22:00 +12°C° 0 mm 0 m/s 762 mmHg 82%
    23:00 +12°C° 0 mm 0 m/s 762 mmHg 83%

    26 Mars, Mardi

    Heure Température Précipitation Vent Pression Humidité
    00:00 +12°C° 0 mm 0 m/s 762 mmHg 83%
    01:00 +11°C° 0 mm 0 m/s 762 mmHg 84%
    02:00 +12°C° 0 mm 1 m/s 762 mmHg 84%
    03:00 +12°C° 0 mm 1 m/s 761 mmHg 84%
    04:00 +12°C° 0 mm 1 m/s 761 mmHg 84%
    05:00 +12°C° 0 mm 1 m/s 761 mmHg 84%
    06:00 +12°C° 0 mm 1 m/s 761 mmHg 83%
    07:00 +11°C° 0 mm 0 m/s 761 mmHg 83%
    08:00 +13°C° 0 mm 0 m/s 762 mmHg 77%
    09:00 +16°C° 0 mm 0 m/s 762 mmHg 70%
    10:00 +18°C° 0 mm 0 m/s 762 mmHg 64%
    11:00 +20°C° 0 mm 1 m/s 762 mmHg 62%
    12:00 +20°C° 0 mm 2 m/s 762 mmHg 59%
    13:00 +21°C° 0 mm 2 m/s 761 mmHg 56%
    14:00 +20°C° 0 mm 2 m/s 761 mmHg 57%
    15:00 +20°C° 0 mm 3 m/s 761 mmHg 59%
    16:00 +20°C° 0 mm 3 m/s 761 mmHg 60%
    17:00 +18°C° 0 mm 2 m/s 761 mmHg 65%
    18:00 +16°C° 0 mm 2 m/s 761 mmHg 71%
    19:00 +14°C° 0 mm 1 m/s 761 mmHg 76%
    20:00 +13°C° 0 mm 1 m/s 762 mmHg 78%
    21:00 +13°C° 0 mm 1 m/s 762 mmHg 79%
    22:00 +12°C° 0 mm 1 m/s 763 mmHg 81%
    23:00 +12°C° 0 mm 1 m/s 763 mmHg 82%
    Voir plus